Estación de El Refugio

Ultimos registro cada 15 minutos 88
Estación Fecha / Hora Temperatura Humedad Lluvia Velocidad Dirección Radiación Presion
88 El Refugio 04-05-2026 22:00 11,1 72 0 0 360 0 1035,2
87 El Refugio 04-05-2026 21:45 11,3 71 0 0 360 0 1035,1
86 El Refugio 04-05-2026 21:30 11,3 70 0 0 360 0 1035
85 El Refugio 04-05-2026 21:15 11,3 71 0 0 360 0 1034,9
84 El Refugio 04-05-2026 21:00 11,5 70 0 0 360 0 1034,9
83 El Refugio 04-05-2026 20:45 11,8 68 0 0 360 0 1034,8
82 El Refugio 04-05-2026 20:30 12,1 68 0 0 360 0 1034,8
81 El Refugio 04-05-2026 20:15 12,4 67 0 0 360 0 1034,8
80 El Refugio 04-05-2026 20:00 12,4 63 0 0 360 0 1034,7
79 El Refugio 04-05-2026 19:45 12,6 66 0 0 360 0 1034,7
78 El Refugio 04-05-2026 19:30 12,9 63 0 0 360 0 1034,5
77 El Refugio 04-05-2026 19:15 13,6 64 0 0 279 0 1034,3
76 El Refugio 04-05-2026 19:00 14,1 58 0 0 279 0 1034,5
75 El Refugio 04-05-2026 18:45 14,7 56 0 0 279 0 1034,5
74 El Refugio 04-05-2026 18:30 15,6 56 0 0 279 0 1034,6
73 El Refugio 04-05-2026 18:15 16,6 53 0 0 279 0 1034,3
72 El Refugio 04-05-2026 18:00 17,9 47 0 0 279 0 1034,2
71 El Refugio 04-05-2026 17:45 19,3 42 0 0 279 9 1034,1
70 El Refugio 04-05-2026 17:30 20,2 37 0 0 279 26 1034,1
69 El Refugio 04-05-2026 17:15 20,6 36 0 0 279 70 1033,8
68 El Refugio 04-05-2026 17:00 21,1 35 0 0 279 116 1034
67 El Refugio 04-05-2026 16:45 21,4 34 0 0 279 162 1034,1
66 El Refugio 04-05-2026 16:30 21,7 32 0 0 279 211 1034,3
65 El Refugio 04-05-2026 16:15 21,9 33 0 0 279 88 1034,2
64 El Refugio 04-05-2026 16:00 21,9 32 0 0 279 107 1034,3
63 El Refugio 04-05-2026 15:45 21,9 33 0 0 288 329 1034,3
62 El Refugio 04-05-2026 15:30 21,5 33 0 0 288 513 1034,5
61 El Refugio 04-05-2026 15:15 20,9 39 0 0 288 271 1034,5
60 El Refugio 04-05-2026 15:00 20,9 39 0 0 288 271 1034,5
59 El Refugio 04-05-2026 14:45 20,8 39 0 0 288 236 1034,7
58 El Refugio 04-05-2026 14:30 20,3 40 0 0 288 241 1034,9
57 El Refugio 04-05-2026 14:15 20 38 0 0 288 155 1035,2
56 El Refugio 04-05-2026 14:00 19,7 41 0 0 288 142 1035,4
55 El Refugio 04-05-2026 13:45 19,5 42 0 0 288 209 1035,5
54 El Refugio 04-05-2026 13:30 19,3 44 0 0 288 209 1035,7
53 El Refugio 04-05-2026 13:15 19,3 46 0 0 288 167 1035,9
52 El Refugio 04-05-2026 13:00 19,2 44 0 0 288 144 1036
51 El Refugio 04-05-2026 12:45 18,9 46 0 0 288 162 1036,2
50 El Refugio 04-05-2026 12:30 18,8 48 0 0 288 185 1036,1
49 El Refugio 04-05-2026 12:15 18,7 46 0 0 288 160 1036,1
48 El Refugio 04-05-2026 12:00 18,6 48 0 0 288 142 1036,3
47 El Refugio 04-05-2026 11:45 18,4 50 0 0 288 149 1036,5
46 El Refugio 04-05-2026 11:30 18,2 51 0 0 288 156 1036,5
45 El Refugio 04-05-2026 11:15 18,2 51 0 0 288 172 1036,6
44 El Refugio 04-05-2026 11:00 17,8 52 0 0 288 178 1036,5
43 El Refugio 04-05-2026 10:45 17,4 53 0 0 288 199 1036,4
42 El Refugio 04-05-2026 10:30 16,8 53 0 0 288 179 1036,3
41 El Refugio 04-05-2026 10:15 15,8 57 0 0 288 214 1036,3
40 El Refugio 04-05-2026 10:00 14,7 63 0 0 288 178 1036,3
39 El Refugio 04-05-2026 09:45 13,9 72 0 0 288 121 1036,4
38 El Refugio 04-05-2026 09:30 13,3 76 0 0 288 91 1036,5
37 El Refugio 04-05-2026 09:15 12,9 78 0 0 288 70 1036,6
36 El Refugio 04-05-2026 09:00 12,4 77 0 0 288 53 1036,5
35 El Refugio 04-05-2026 08:45 12,1 79 0 0 288 35 1036,3
34 El Refugio 04-05-2026 08:30 11,8 80 0 0 288 30 1036,3
33 El Refugio 04-05-2026 08:15 11,6 80 0 0 288 19 1036,3
32 El Refugio 04-05-2026 08:00 11,5 78 0 0 288 9 1036,2
31 El Refugio 04-05-2026 07:45 11,5 80 0 0 288 0 1036,3
30 El Refugio 04-05-2026 07:30 11,3 78 0 0 288 0 1036,2
29 El Refugio 04-05-2026 07:15 11,3 79 0 0 288 0 1036,1
28 El Refugio 04-05-2026 07:00 11,2 80 0 0 288 0 1036
27 El Refugio 04-05-2026 06:45 11,3 80 0 0 288 0 1035,9
26 El Refugio 04-05-2026 06:30 11,3 80 0 0 288 0 1035,8
25 El Refugio 04-05-2026 06:00 11,4 79 0 0 288 0 1035,7
24 El Refugio 04-05-2026 05:45 11,6 79 0 0 288 0 1035,8
23 El Refugio 04-05-2026 05:30 11,6 79 0 0 288 0 1035,8
22 El Refugio 04-05-2026 05:15 11,6 77 0 0 288 0 1036
21 El Refugio 04-05-2026 05:00 11,7 77 0 0 288 0 1036
20 El Refugio 04-05-2026 04:45 11,9 77 0 0 288 0 1035,7
19 El Refugio 04-05-2026 04:30 11,9 77 0 0 288 0 1035,7
18 El Refugio 04-05-2026 04:15 11,9 76 0 0 288 0 1035,6
17 El Refugio 04-05-2026 04:00 11,9 75 0 0 288 0 1035,6
16 El Refugio 04-05-2026 03:45 12,2 75 0 0 288 0 1036
15 El Refugio 04-05-2026 03:30 12,2 75 0 0 288 0 1036
14 El Refugio 04-05-2026 03:15 12,4 73 0 0 288 0 1036,3
13 El Refugio 04-05-2026 03:00 12,1 72 0 0 288 0 1036,5
12 El Refugio 04-05-2026 02:45 11,9 73 0 0 288 0 1036,6
11 El Refugio 04-05-2026 02:30 11,9 73 0 0 288 0 1036,6
10 El Refugio 04-05-2026 02:15 11,8 74 0 0 288 0 1036,6
9 El Refugio 04-05-2026 02:00 11,8 75 0 0 288 0 1036,6
8 El Refugio 04-05-2026 01:45 12,2 78 0 0 288 0 1037,1
7 El Refugio 04-05-2026 01:30 12,2 78 0 0 288 0 1037,1
6 El Refugio 04-05-2026 01:15 12,2 76 0 0 288 0 1037,3
5 El Refugio 04-05-2026 01:00 12,2 79 0 0 288 0 1037,6
4 El Refugio 04-05-2026 00:45 12,3 79 0 0 288 0 1037,8
3 El Refugio 04-05-2026 00:30 12,3 79 0 0 288 0 1037,8
2 El Refugio 04-05-2026 00:15 12,5 77 0 0 288 0 1037,8
1 El Refugio 04-05-2026 00:00 12,6 75 0 0 288 0 1037,9